[[{"header":{"parameterUnit":"m.s-1","parameterCategory":1,"la1":30.2991,"la2":30.254,"lo1":-89.0895,"lo2":-89.0444,"dy":0.0017,"dx":0.0017,"nx":28,"ny":28,"refTime":"2024-04-17T09:00:00:Z","depth":0,"parameterNumber":2,"parameterNumberName":"U-component_of_WINDS"},"data":[0,0,0,0,0,0,0,0,0,0,0,0,0,0,0,0,0,0,0,0,0,0,0,0,0,0,0,0,0,0,0,0,0,0,0,0,0,0,0,0,0,0,0,0,0,0,0,0,0,0,0,0,0,0,0,0,0,0,-1.9305,-1.9305,0,-1.9329,-1.9329,-1.933,-1.932,-1.9319,-1.9319,-1.9318,-1.9343,-1.9344,-1.9345,0,0,0,0,0,0,0,0,0,0,0,0,0,-1.9251,-1.9252,-1.9305,-1.9305,-1.9306,-1.9329,-1.9329,-1.933,-1.932,-1.9319,-1.9319,-1.9318,-1.9342,-1.9344,-1.9345,0,0,0,0,0,0,0,0,0,0,0,0,0,-1.9275,-1.9252,-1.9305,-1.9304,-1.9304,-1.9329,-1.9329,-1.933,-1.932,-1.9319,-1.9318,-1.9318,-1.9342,-1.9344,-1.9345,-1.9373,0,0,-1.9351,-1.9352,0,0,0,0,0,0,0,0,-1.9273,-1.9277,-1.9304,-1.9304,-1.9304,-1.9321,-1.9319,-1.9344,-1.932,-1.9314,-1.9318,-1.9317,-1.9336,-1.9338,-1.9345,-1.9375,-1.9376,-1.9351,-1.9352,-1.9353,-1.9353,0,0,0,0,0,0,0,-1.9272,-1.9275,-1.9315,-1.9304,-1.9304,-1.9302,-1.9304,-1.9324,-1.9329,-1.9314,-1.9314,-1.9317,-1.9336,-1.9343,-1.9345,-1.9376,-1.9351,-1.9352,-1.9354,-1.9354,-1.943,-1.9431,0,0,0,0,0,0,-1.927,-1.9274,-1.9314,-1.9315,-1.9286,-1.9304,-1.9306,-1.9316,-1.9329,-1.933,-1.9317,-1.9316,-1.934,-1.9343,-1.9346,-1.9379,-1.9353,-1.9354,-1.9355,-1.9429,-1.943,-1.9431,0,0,0,0,0,0,-1.9269,-1.9274,-1.9313,-1.9295,-1.9299,-1.9305,-1.9317,-1.9317,-1.9324,-1.9332,-1.9332,-1.9324,-1.934,-1.9343,-1.9367,-1.938,-1.9355,-1.9357,-1.9428,-1.9429,-1.9431,-1.9447,0,0,0,0,0,0,-1.9267,-1.9273,-1.9284,-1.9295,-1.93,-1.9333,-1.9317,-1.9318,-1.9327,-1.9326,-1.9337,-1.9339,-1.9339,-1.9364,-1.9368,-1.9382,-1.9358,-1.9427,-1.9429,-1.943,-1.9445,-1.9449,-1.9452,0,0,0,0,0,-1.9265,-1.9288,-1.9285,-1.9289,-1.9314,-1.9334,-1.9337,-1.9338,-1.9328,-1.9339,-1.9344,-1.9338,-1.9378,-1.9366,-1.9371,-1.9386,-1.9426,-1.9428,-1.943,-1.9444,-1.9448,-1.9451,0,0,0,0,0,0,-1.9278,-1.9289,-1.9286,-1.9312,-1.9322,-1.9332,-1.9346,-1.9342,-1.9355,-1.9353,-1.9353,-1.9356,-1.938,-1.9385,-1.9372,-1.9414,-1.9401,-1.9404,-1.9409,-1.9413,-1.9416,-1.9414,-1.936,0,0,0,0,0,-1.9284,-1.9299,-1.9308,-1.9331,-1.9336,-1.934,-1.9349,-1.9348,-1.9359,-1.9363,-1.9369,-1.938,-1.9395,-1.9404,-1.9418,-1.9446,-1.9448,-1.9458,-1.9462,-1.9464,-1.9467,-1.9482,-1.9486,-1.9438,-1.9438,-1.9438,0,0,-1.9296,-1.9304,-1.9314,-1.9333,-1.9341,-1.9357,-1.9344,-1.9361,-1.9373,-1.9366,-1.9388,-1.9393,-1.9404,-1.943,-1.9441,-1.9435,-1.9481,-1.9467,-1.9469,-1.947,-1.9484,-1.9489,-1.9493,-1.944,-1.9439,-1.9439,0,0,-1.9327,-1.9334,-1.9354,-1.9362,-1.9373,-1.9376,-1.9381,-1.9392,-1.9395,-1.9417,-1.9412,-1.9426,-1.9452,-1.946,-1.9467,-1.9501,-1.9496,-1.9506,-1.9523,-1.9537,-1.9541,-1.9544,-1.9556,-1.956,-1.9508,-1.9508,-1.9508,0,-1.934,-1.9364,-1.9364,-1.9382,-1.939,-1.9385,-1.9404,-1.9412,-1.9428,-1.9434,-1.9427,-1.9459,-1.9466,-1.9493,-1.9501,-1.9508,-1.9513,-1.9504,-1.954,-1.9544,-1.9547,-1.9558,-1.9562,-1.9509,-1.9509,-1.9509,-1.9509,0,-1.938,-1.9397,-1.9411,-1.9426,-1.9436,-1.9455,-1.9458,-1.9468,-1.9467,-1.9471,-1.9493,-1.9502,-1.9518,-1.9524,-1.9523,-1.9551,-1.9547,-1.954,-1.9527,-1.9552,-1.9563,-1.9567,-1.9511,-1.9511,-1.951,-1.951,0,0,-1.9419,-1.9434,-1.9439,-1.9446,-1.9459,-1.9471,-1.949,-1.9505,-1.9514,-1.9525,-1.954,-1.9562,-1.9556,-1.9565,-1.9564,-1.9577,-1.9603,-1.9569,-1.9569,-1.9574,-1.9634,-1.9639,-1.9644,-1.96,-1.9601,-1.9601,-1.9633,0,-1.945,-1.9482,-1.9483,-1.9512,-1.9527,-1.9522,-1.9538,-1.9547,-1.9551,-1.9564,-1.9569,-1.9584,-1.9575,-1.958,-1.9592,-1.9597,-1.9615,-1.9595,-1.9614,-1.9615,-1.9611,-1.9649,-1.9655,-1.9684,-1.9637,-1.9638,-1.9638,0,-1.949,-1.9503,-1.9534,-1.9544,-1.955,-1.9564,-1.9578,-1.9591,-1.9602,-1.9604,-1.9614,-1.9612,-1.963,-1.9617,-1.9642,-1.9629,-1.9637,-1.964,-1.9641,-1.9643,-1.9628,-1.9652,-1.9693,-1.9698,-1.9645,-1.9644,-1.9644,0,-1.9515,-1.954,-1.9561,-1.9567,-1.958,-1.959,-1.9596,-1.9605,-1.9615,-1.9627,-1.9633,-1.9647,-1.9655,-1.9666,-1.9668,-1.9658,-1.9694,-1.968,-1.9695,-1.9695,-1.9703,-1.9702,-1.9746,-1.9709,-1.9709,-1.9709,-1.9708,0,-1.955,-1.9569,-1.9572,-1.9586,-1.9607,-1.9607,-1.9628,-1.9633,-1.9642,-1.9656,-1.9652,-1.9666,-1.9668,-1.9681,-1.9683,-1.9704,-1.9707,-1.9709,-1.9709,-1.9709,-1.9709,-1.9714,-1.9712,-1.971,-1.9709,-1.9709,-1.9709,0,-1.9581,-1.9584,-1.9607,-1.9617,-1.962,-1.9635,-1.9644,-1.9656,-1.966,-1.9678,-1.9682,-1.9687,-1.9703,-1.9706,-1.9725,-1.9726,-1.9751,-1.9749,-1.9748,-1.9747,-1.9762,-1.9761,-1.9811,-1.9817,-1.9776,-1.9776,-1.9776,0,-1.9603,-1.9617,-1.9628,-1.9637,-1.9644,-1.9658,-1.9668,-1.9669,-1.9679,-1.9692,-1.9703,-1.9718,-1.9731,-1.9757,-1.9762,-1.9777,-1.9775,-1.9792,-1.9777,-1.9777,-1.9775,-1.9774,-1.9775,-1.9794,-1.9795,-1.9795,-1.9796,0,-1.9641,-1.9641,-1.9655,-1.9668,-1.9679,-1.9691,-1.9701,-1.9709,-1.9711,-1.9722,-1.9739,-1.9748,-1.9768,-1.9783,-1.9798,-1.9803,-1.98,-1.98,-1.9804,-1.9804,-1.9802,-1.9803,-1.9755,-1.9799,-1.9798,-1.9798,-1.9798,-1.9798,-1.9667,-1.968,-1.969,-1.9705,-1.9713,-1.9722,-1.9735,-1.974,-1.9753,-1.9769,-1.9769,-1.9786,-1.9797,-1.9816,-1.9822,-1.9836,-1.9831,-1.9837,-1.9839,-1.984,-1.9842,-1.98,-1.9839,-1.9839,-1.9839,-1.9839,-1.9839,0,-1.9705,-1.9711,-1.9725,-1.9739,-1.9751,-1.9747,-1.9758,-1.9768,-1.9784,-1.9793,-1.9806,-1.9824,-1.9839,-1.9846,-1.9861,-1.9871,-1.9869,-1.9875,-1.9874,-1.9875,-1.9846,-1.984,-1.9875,-1.9875,-1.9875,-1.9875,-1.9875,-1.9875,-1.9726,-1.9747,-1.9749,-1.9773,-1.9779,-1.9796,-1.9803,-1.9812,-1.982,-1.9841,-1.9853,-1.9857,-1.9866,-1.9881,-1.9895,-1.9897,-1.9902,-1.9908,-1.9909,-1.9881,-1.9877,-1.9874,-1.9869,-1.9909,-1.9909,-1.9937,-1.9937,-1.9938]},{"header":{"parameterUnit":"m.s-1","parameterCategory":1,"la1":30.2991,"la2":30.254,"lo1":-89.0895,"lo2":-89.0444,"dy":0.0017,"dx":0.0017,"nx":28,"ny":28,"refTime":"2024-04-17T09:00:00:Z","depth":0,"parameterNumber":3,"parameterNumberName":"V-component_of_WINDS"},"data":[0,0,0,0,0,0,0,0,0,0,0,0,0,0,0,0,0,0,0,0,0,0,0,0,0,0,0,0,0,0,0,0,0,0,0,0,0,0,0,0,0,0,0,0,0,0,0,0,0,0,0,0,0,0,0,0,0,0,2.3808,2.381,0,2.3916,2.3917,2.3918,2.3935,2.3934,2.3933,2.3932,2.4039,2.4042,2.4046,0,0,0,0,0,0,0,0,0,0,0,0,0,2.3616,2.362,2.3808,2.381,2.3811,2.3915,2.3917,2.3918,2.3935,2.3934,2.3932,2.3931,2.4038,2.4042,2.4047,0,0,0,0,0,0,0,0,0,0,0,0,0,2.3709,2.3621,2.3808,2.3832,2.3835,2.3915,2.3917,2.3919,2.3935,2.3934,2.3932,2.3931,2.4036,2.4042,2.4047,2.411,0,0,2.4064,2.4067,0,0,0,0,0,0,0,0,2.3704,2.3716,2.3827,2.383,2.3834,2.391,2.3888,2.3983,2.3935,2.3897,2.3932,2.393,2.3997,2.4006,2.4029,2.4115,2.412,2.4065,2.4068,2.4071,2.4072,0,0,0,0,0,0,0,2.3697,2.3712,2.3851,2.3829,2.3833,2.3837,2.3848,2.3906,2.3954,2.39,2.3902,2.3914,2.3999,2.4023,2.4032,2.4121,2.4065,2.407,2.4073,2.4075,2.4266,2.4267,0,0,0,0,0,0,2.3687,2.3706,2.3847,2.3854,2.3764,2.3841,2.3854,2.3887,2.3953,2.3962,2.3915,2.3915,2.4015,2.4025,2.4035,2.4115,2.407,2.4076,2.4079,2.4264,2.4266,2.4268,0,0,0,0,0,0,2.3683,2.3699,2.3843,2.3781,2.3799,2.3846,2.3883,2.389,2.3915,2.3965,2.3973,2.3932,2.4014,2.4027,2.4092,2.4119,2.4078,2.4083,2.4262,2.4265,2.4267,2.4273,0,0,0,0,0,0,2.3677,2.3698,2.3723,2.3781,2.3802,2.3898,2.3885,2.3893,2.3925,2.3925,2.3983,2.3991,2.4014,2.4084,2.4098,2.4126,2.4088,2.426,2.4263,2.4266,2.4271,2.4276,2.428,0,0,0,0,0,2.367,2.3719,2.3724,2.3741,2.3834,2.39,2.3912,2.3939,2.3927,2.3952,2.3984,2.3989,2.4113,2.409,2.4106,2.4136,2.4258,2.4262,2.4266,2.4269,2.4275,2.428,0,0,0,0,0,0,2.3662,2.3727,2.3733,2.3802,2.3846,2.3903,2.3935,2.3944,2.399,2.3988,2.4018,2.4031,2.4094,2.4121,2.4094,2.4201,2.4185,2.4192,2.4181,2.4187,2.4192,2.4184,2.4092,0,0,0,0,0,2.3668,2.3716,2.377,2.3826,2.3848,2.3888,2.3917,2.3934,2.398,2.3998,2.4034,2.4078,2.4127,2.4158,2.4206,2.4274,2.4288,2.4303,2.4307,2.4311,2.4317,2.4356,2.4364,2.4281,2.4281,2.4281,0,0,2.3681,2.3723,2.3751,2.3826,2.3861,2.391,2.3903,2.3955,2.3992,2.4005,2.4069,2.4097,2.4148,2.4215,2.4246,2.4239,2.4343,2.4316,2.4318,2.4323,2.4361,2.4369,2.4376,2.4283,2.4283,2.4282,0,0,2.3731,2.3767,2.3818,2.3854,2.3909,2.3935,2.3947,2.4003,2.4023,2.4088,2.4099,2.4143,2.4226,2.4262,2.4291,2.4355,2.4361,2.437,2.4393,2.4431,2.4438,2.4444,2.4468,2.4476,2.4375,2.4375,2.4375,0,2.3741,2.3816,2.3843,2.3896,2.3928,2.3944,2.3996,2.4029,2.4096,2.4118,2.4109,2.4215,2.425,2.4326,2.4342,2.4365,2.438,2.4364,2.4435,2.4441,2.4447,2.447,2.4479,2.4376,2.4376,2.4376,2.4376,0,2.3826,2.3877,2.3912,2.3978,2.4014,2.4066,2.4101,2.4134,2.4148,2.4175,2.4241,2.4283,2.434,2.4359,2.4372,2.4438,2.4432,2.4429,2.4413,2.4455,2.4478,2.4487,2.4377,2.4377,2.4377,2.4376,0,0,2.3874,2.3954,2.3966,2.3997,2.4058,2.4098,2.4151,2.4208,2.4236,2.4281,2.4326,2.4397,2.4395,2.4428,2.4445,2.4478,2.4528,2.4471,2.4472,2.4481,2.4604,2.4607,2.4617,2.4532,2.4534,2.4535,2.46,0,2.3932,2.4027,2.4053,2.4134,2.4182,2.4198,2.4244,2.4286,2.4313,2.4357,2.4386,2.4437,2.4429,2.4449,2.4483,2.4515,2.4553,2.451,2.4574,2.4576,2.4563,2.4628,2.4632,2.4691,2.4609,2.461,2.4611,0,2.4012,2.406,2.4146,2.4202,2.4223,2.4264,2.4319,2.4362,2.441,2.4427,2.4464,2.4479,2.4534,2.4514,2.4591,2.4561,2.4589,2.4608,2.4611,2.4619,2.4597,2.4639,2.4711,2.472,2.4625,2.4624,2.4623,0,2.404,2.4126,2.4189,2.4214,2.4281,2.4309,2.4338,2.4385,2.4418,2.4465,2.4487,2.454,2.4569,2.4609,2.4637,2.462,2.4712,2.4694,2.4728,2.4727,2.4747,2.4746,2.4825,2.4763,2.4763,2.4762,2.4762,0,2.4103,2.4155,2.4203,2.4242,2.43,2.433,2.4387,2.4417,2.4458,2.4503,2.4518,2.456,2.4594,2.464,2.4662,2.4722,2.4735,2.475,2.4756,2.475,2.4748,2.4769,2.4767,2.4765,2.4764,2.4764,2.4763,0,2.4145,2.4179,2.4249,2.4306,2.4322,2.4363,2.4411,2.445,2.4477,2.4533,2.4548,2.459,2.4645,2.4677,2.4745,2.476,2.4828,2.4831,2.4813,2.4815,2.4848,2.4845,2.4944,2.496,2.4885,2.4886,2.4887,0,2.4184,2.4224,2.4286,2.4318,2.4347,2.4397,2.4432,2.4462,2.4497,2.4555,2.4586,2.4642,2.4689,2.4776,2.4812,2.4865,2.487,2.4901,2.4878,2.4871,2.4872,2.487,2.4875,2.4906,2.4906,2.4907,2.4907,0,2.4249,2.4264,2.4313,2.4368,2.4409,2.4453,2.4497,2.4522,2.456,2.4598,2.4655,2.4691,2.4762,2.4818,2.4874,2.4903,2.4912,2.4914,2.4925,2.492,2.4909,2.4917,2.4825,2.4912,2.4912,2.4911,2.4911,2.4911,2.4292,2.4329,2.4379,2.4433,2.447,2.4511,2.455,2.4583,2.4631,2.4692,2.4707,2.4767,2.4814,2.4891,2.4921,2.4968,2.4963,2.4978,2.4982,2.4986,2.4988,2.49,2.4978,2.4978,2.4978,2.4978,2.4978,0,2.4359,2.4392,2.4442,2.4504,2.4547,2.4552,2.4601,2.4637,2.469,2.4733,2.4779,2.4845,2.4899,2.494,2.4996,2.5026,2.5031,2.5039,2.5038,2.5045,2.4988,2.4974,2.5034,2.5034,2.5034,2.5034,2.5034,2.5034,2.4399,2.4464,2.4484,2.4567,2.4599,2.4659,2.4687,2.4725,2.4761,2.4834,2.488,2.4906,2.4949,2.5008,2.5058,2.5069,2.5089,2.5097,2.5108,2.5055,2.5049,2.5043,2.503,2.51,2.5101,2.5161,2.5162,2.5162]}]]